Location: Cronhütte
(48.9135°N, 9.6869°E)
Time: 19:10:33
(UTC+00:00)

Cosmos 1346 Rocket - Pass Details

Date: 23 May 2024
Orbit: 507 x 521 km, 81.2° (Epoch: 24 June)

Event Time Altitude Azimuth Distance (km) Brightness Sun altitude
Rises 00:39:03 0° 343° (NNW) 2,663 7.2 -18.1°
Reaches altitude 10° 00:41:15 10° 337° (NNW) 1,771 6.1 -18.0°
Maximum altitude 00:44:59 47° 264° (W) 706 3.1 -17.8°
Enters shadow 00:45:46 40° 228° (SW) 783 3.1 -17.7°
